| time (UTC) | temp C | wind direction | speed KPH | gust KPH | rain 1hr cm | rain 24hr cm | rain mn cm | humidity % | barometer mb |
| 20260504024040 | 16 | 221 | 1.6 | 4.8 | 0.00 | 0.00 | 0.00 | 100 | 1009.2 |
| 20260504023041 | 16 | 206 | 4.8 | 9.7 | 0.00 | 0.00 | 0.00 | 100 | 1009.2 |
| 20260504022040 | 16 | 225 | 3.2 | 6.4 | 0.00 | 0.00 | 0.00 | 100 | 1009.2 |
| 20260504021138 | 16 | 219 | 4.8 | 8.0 | 0.00 | 0.00 | 0.00 | 100 | 1008.9 |
| 20260504020137 | 17 | 213 | 4.8 | 9.7 | 0.00 | 0.00 | 0.00 | 100 | 1008.8 |
| 20260504015139 | 17 | 225 | 4.8 | 12.9 | 0.00 | 0.00 | 0.00 | 100 | 1008.8 |
| 20260504014138 | 17 | 225 | 3.2 | 8.0 | 0.00 | 0.00 | 0.00 | 100 | 1008.8 |
| 20260504013039 | 17 | 225 | 6.4 | 9.7 | 0.00 | 0.00 | 0.00 | 100 | 1008.5 |
| 20260504012040 | 17 | 218 | 6.4 | 9.7 | 0.00 | 0.00 | 0.00 | 100 | 1008.5 |
| 20260504011040 | 18 | 221 | 4.8 | 9.7 | 0.00 | 0.00 | 0.00 | 100 | 1008.2 |
| 20260504005040 | 18 | 221 | 9.7 | 20.9 | 0.00 | 0.00 | 0.00 | 100 | 1008.5 |
| 20260504004039 | 19 | 227 | 4.8 | 11.3 | 0.00 | 0.00 | 0.00 | 100 | 1008.5 |
| 20260504003041 | 19 | 229 | 6.4 | 14.5 | 0.00 | 0.00 | 0.00 | 100 | 1008.5 |
| 20260504002138 | 20 | 238 | 3.2 | 6.4 | 0.00 | 0.00 | 0.00 | 100 | 1008.5 |
| 20260504001139 | 20 | 231 | 1.6 | 6.4 | 0.00 | 0.00 | 0.00 | 100 | 1008.5 |
| 20260504000138 | 20 | 247 | 4.8 | 9.7 | 0.00 | 0.00 | 0.00 | 100 | 1008.5 |
| 20260503235137 | 20 | 218 | 4.8 | 8.0 | 0.00 | 0.00 | 0.00 | 100 | 1008.5 |
| 20260503235040 | 20 | 249 | 3.2 | 11.3 | 0.00 | 0.00 | 0.00 | 100 | 1008.2 |
| 20260503234138 | 20 | 215 | 8.0 | 19.3 | 0.00 | 0.00 | 0.00 | 100 | 1008.2 |
| 20260503232139 | 20 | 223 | 6.4 | 9.7 | 0.00 | 0.00 | 0.00 | 100 | 1008.5 |
| 20260503230240 | 20 | 215 | 12.9 | 25.7 | 0.00 | 0.00 | 0.00 | 100 | 1008.5 |
| 20260503225241 | 20 | 209 | 11.3 | 19.3 | 0.00 | 0.00 | 0.00 | 100 | 1008.5 |
| 20260503224337 | 20 | 200 | 9.7 | 22.5 | 0.00 | 0.00 | 0.00 | 100 | 1008.8 |
| 20260503223339 | 19 | 199 | 9.7 | 16.1 | 0.00 | 0.00 | 0.00 | 100 | 1008.8 |
| 20260503222338 | 19 | 197 | 14.5 | 24.1 | 0.00 | 0.00 | 0.00 | 100 | 1009.2 |
| 20260503221339 | 18 | 208 | 9.7 | 22.5 | 0.00 | 0.00 | 0.00 | 100 | 1009.2 |
| 20260503220339 | 18 | 227 | 4.8 | 9.7 | 0.00 | 0.00 | 0.00 | 100 | 1009.5 |
| 20260503215437 | 18 | 214 | 14.5 | 33.8 | 0.00 | 0.00 | 0.00 | 100 | 1009.6 |
| 20260503214439 | 18 | 210 | 12.9 | 29.0 | 0.00 | 0.00 | 0.00 | 100 | 1009.2 |
| 20260503212539 | 18 | 216 | 12.9 | 22.5 | 0.00 | 0.00 | 0.00 | 100 | 1009.6 |
| 20260503212437 | 18 | 191 | 17.7 | 27.4 | 0.00 | 0.00 | 0.00 | 100 | 1009.6 |
| 20260503205441 | 17 | 206 | 12.9 | 20.9 | 0.00 | 0.00 | 0.00 | 100 | 1010.3 |
| 20260503204538 | 17 | 227 | 14.5 | 25.7 | 0.00 | 0.00 | 0.00 | 100 | 1010.6 |
| 20260503203538 | 18 | 211 | 16.1 | 29.0 | 0.00 | 0.00 | 0.00 | 100 | 1010.9 |
| 20260503202540 | 18 | 207 | 9.7 | 24.1 | 0.00 | 0.00 | 0.00 | 100 | 1011.0 |
| 20260503201539 | 18 | 221 | 20.9 | 33.8 | 0.00 | 0.00 | 0.00 | 100 | 1011.0 |
| 20260503200538 | 18 | 204 | 16.1 | 25.7 | 0.00 | 0.00 | 0.00 | 100 | 1011.0 |
| 20260503195637 | 17 | 216 | 16.1 | 30.6 | 0.00 | 0.00 | 0.00 | 100 | 1011.3 |
| 20260503194639 | 17 | 229 | 9.7 | 19.3 | 0.00 | 0.00 | 0.00 | 100 | 1011.3 |
| 20260503193640 | 16 | 225 | 8.0 | 16.1 | 0.00 | 0.00 | 0.00 | 100 | 1011.6 |
| 20260503192737 | 16 | 216 | 14.5 | 27.4 | 0.00 | 0.00 | 0.00 | 100 | 1011.6 |
| 20260503191736 | 15 | 174 | 14.5 | 24.1 | 0.00 | 0.00 | 0.00 | 100 | 1011.6 |
| 20260503185739 | 14 | 172 | 8.0 | 16.1 | 0.00 | 0.00 | 0.00 | 100 | 1012.0 |
| 20260503184838 | 13 | 187 | 9.7 | 22.5 | 0.00 | 0.00 | 0.00 | 100 | 1012.6 |
| 20260503183836 | 13 | 167 | 12.9 | 24.1 | 0.00 | 0.00 | 0.00 | 100 | 1013.0 |
| 20260503182838 | 13 | 222 | 6.4 | 16.1 | 0.00 | 0.00 | 0.00 | 100 | 1013.0 |
| 20260503181938 | 12 | 210 | 4.8 | 12.9 | 0.00 | 0.00 | 0.00 | 100 | 1013.0 |
| 20260503180939 | 12 | 205 | 9.7 | 24.1 | 0.00 | 0.00 | 0.00 | 100 | 1013.7 |
| 20260503175939 | 12 | 207 | 6.4 | 12.9 | 0.00 | 0.00 | 0.00 | 100 | 1014.4 |
| 20260503174939 | 12 | 215 | 8.0 | 20.9 | 0.00 | 0.00 | 0.00 | 100 | 1014.4 |
| 20260503174037 | 12 | 210 | 9.7 | 17.7 | 0.00 | 0.00 | 0.00 | 100 | 1014.7 |
| 20260503173038 | 12 | 208 | 8.0 | 20.9 | 0.00 | 0.00 | 0.00 | 100 | 1015.1 |
| 20260503172037 | 11 | 199 | 8.0 | 12.9 | 0.00 | 0.00 | 0.00 | 100 | 1015.4 |
| 20260503171039 | 11 | 215 | 11.3 | 25.7 | 0.00 | 0.00 | 0.00 | 100 | 1015.4 |
| 20260503131236 | 10 | 262 | 6.4 | 9.7 | 0.00 | 0.00 | 0.00 | 100 | 1016.8 |
| 20260503110338 | 8 | 223 | 9.7 | 14.5 | 0.00 | 0.00 | 0.00 | 100 | 1016.4 |
| 20260503080836 | 8 | 216 | 4.8 | 8.0 | 0.00 | 0.00 | 0.00 | 100 | 1017.2 |
| 20260503080738 | 8 | 221 | 3.2 | 8.0 | 0.00 | 0.00 | 0.00 | 100 | 1017.2 |
| 20260503072939 | 8 | 225 | 4.8 | 9.7 | 0.00 | 0.00 | 0.00 | 100 | 1017.4 |
| 20260503072037 | 7 | 228 | 3.2 | 6.4 | 0.00 | 0.00 | 0.00 | 100 | 1017.2 |
| 20260503071052 | 7 | 225 | 1.6 | 6.4 | 0.00 | 0.00 | 0.00 | 100 | 1017.5 |
| 20260503060335 | 8 | 219 | 3.2 | 8.0 | 0.00 | 0.00 | 0.00 | 100 | 1018.2 |
| 20260503054337 | 8 | 221 | 6.4 | 12.9 | 0.00 | 0.00 | 0.00 | 100 | 1018.2 |
| 20260503053339 | 8 | 225 | 3.2 | 8.0 | 0.00 | 0.00 | 0.00 | 100 | 1018.2 |
| 20260503052435 | 8 | 205 | 4.8 | 9.7 | 0.00 | 0.00 | 0.00 | 100 | 1018.2 |
| 20260503051435 | 8 | 218 | 4.8 | 9.7 | 0.00 | 0.00 | 0.00 | 100 | 1018.5 |
| 20260503045441 | 8 | 222 | 4.8 | 9.7 | 0.00 | 0.00 | 0.00 | 100 | 1018.5 |
| 20260503044442 | 8 | 215 | 3.2 | 6.4 | 0.00 | 0.00 | 0.00 | 100 | 1018.5 |
| 20260503043441 | 8 | 225 | 4.8 | 8.0 | 0.00 | 0.00 | 0.00 | 100 | 1018.5 |
| 20260503042442 | 8 | 213 | 4.8 | 8.0 | 0.00 | 0.00 | 0.00 | 100 | 1018.5 |
| 20260503041442 | 8 | 223 | 4.8 | 6.4 | 0.00 | 0.00 | 0.00 | 100 | 1018.9 |
| 20260503035439 | 8 | 217 | 3.2 | 6.4 | 0.00 | 0.00 | 0.00 | 100 | 1018.6 |
| 20260503033441 | 9 | 225 | 4.8 | 8.0 | 0.00 | 0.00 | 0.00 | 100 | 1018.9 |
| 20260503032442 | 9 | 221 | 3.2 | 6.4 | 0.00 | 0.00 | 0.00 | 100 | 1018.9 |
| 20260503031442 | 9 | 215 | 6.4 | 12.9 | 0.00 | 0.00 | 0.00 | 100 | 1019.0 |
| 20260503030442 | 9 | 204 | 3.2 | 6.4 | 0.00 | 0.00 | 0.00 | 100 | 1018.9 |
| 20260503025441 | 10 | 225 | 1.6 | 4.8 | 0.00 | 0.00 | 0.00 | 100 | 1019.1 |